METEOSAT-11 (MSG-4)

Last updated on Sun Jun 21 2026 00:02:46 GMT+0000 (Coordinated Universal Time)

1 40732U 15034A 26171.32244802 .00000057 00000+0 00000+0 0 9991 2 40732 3.2087 71.0883 0002400 346.3671 336.7454 1.00264042 7245
UTC large
Height (km)
Speed (km/s)
/
Latitude / Longitude
Inclination (degrees)
Orbital Period (minutes)
Azimuth
Elevation
Range (km)
Doppler Factor

Next 0 passes for location: London (51.5072 / 0.1276)

No passes found over London.
METEOSAT-11 (MSG-4)